Tracking 19832 objects as of 24-Aug-2019
HD Live streaming from Space Station
objects crossing your sky now

COSMOS 2251 DEB

Track COSMOS 2251 DEB now!
10-day predictions


NORAD ID: 35643
Int'l Code: 1993-036ANJ
Perigee: 664.2 km
Apogee: 735.8 km
Inclination: 74.0 °
Period: 98.6 minutes
Semi major axis: 7070 km
RCS: 0.0012 m2 (small)
Launch date: June 16, 1993
Source: Commonwealth of Independent States (former USSR) (CIS)
Launch site: PLESETSK MISSILE AND SPACE COMPLEX (PKMTR)

Note: This is SATELLITE DEBRIS
aabbcc
Your satellite tracking list
Your tracking list is empty




NASA's NSSDC Master Catalog

Two Line Element Set (TLE):
1 35643U 93036ANJ 19233.99304814 +.00000630 +00000-0 +13515-3 0  9995
2 35643 074.0132 341.2955 0050674 316.9271 042.7933 14.60101780543941
Source of the keplerian elements: AFSPC